Location: Eboldshausen
(51.7766°N, 10.0050°E)
Time: 07:39:52
(UTC+00:00)

Cosmos 2074 Rocket - Pass Details

Date: 15 June 2024
Orbit: 968 x 985 km, 82.9° (Epoch: 22 July)

Event Time Altitude Azimuth Distance (km) Brightness Sun altitude
Exits shadow 00:24:25 17° 213° (SSW) 2,231 5.3 -13.6°
Maximum altitude 00:29:07 54° 286° (WNW) 1,170 4.4 -13.4°
Drops below altitude 10° 00:35:14 10° 3° (N) 2,726 7.7 -13.1°
Sets 00:37:50 0° 9° (N) 3,679 8.9 -13.0°
